www.pogodaiklimat.ru

Погода и климат >> Архив погоды >> Гана >> Кофоридуа


ПОГОДА в Кофоридуа

  • Прогноз погоды в Кофоридуа
  • Монитор погоды в Кофоридуа

АРХИВ ПОГОДЫ в Кофоридуа

Время (UTC), дата Ветер
(напр.,м/с)
 
Видим.   Явления Облачность Т
(С)
Тd
(С)
f
(%)
Тe
(С)
Тes
(С)
Комфортность P
(гПа)
Po
(гПа)
Тmin
(С)
Tmax
(С)
R
(мм)
R24
(мм)
S
(см)
21 11.07 штиль 0 12 км 4/4 360 м
[Sc]
+25.5 +23.1 87 +34 +34 очень
душно
1014.9 995.7
00 12.07 ЮЗ 1 12 км 9/9 360 м
[Sc]
+24.0 +22.5 91 +31 +31 очень
душно
1014.7 995.4
03 12.07 ЮЗ 1 12 км 9/9 360 м
[Sc]
+23.4 +22.0 92 +32 +32 очень
душно
1014.2 994.9
06 12.07 ЮЗ 1 12 км 9/9 330 м
[Sc]
+23.4 +22.0 92 +32 +32 очень
душно
1014.7 995.4 +22.6
09 12.07 З 1 12 км 9/9 360 м
[Cu Sc]
+25.5 +22.7 85 +34 +35 очень
душно
1016.4 997.2
12 12.07 ЮЗ 1 16 км 9/9 360 м
[Cu Sc]
+27.0 +22.4 76 +35 +38 очень
душно
1015.0 995.9
15 12.07 ЮЗ 1 16 км 6/6 480 м
[Cb cap]
+29.6 +22.6 66 +39 +44 очень
душно
1012.4 993.5
18 12.07 ЮЗ 2 16 км 6/4 360 м
[Cb cap Ci sp]
+26.5 +22.9 81 +35 +35 очень
душно
1013.3 994.2 +29.6
21 12.07 З 1 12 км 9/9 360 м
[Sc]
+24.3 +22.5 90 +32 +32 очень
душно
1015.4 996.1
03 13.07 ЮЗ 1 12 км 9/9 360 м
[Sc]
+24.0 +22.6 92 +31 +31 очень
душно
1014.5 995.2
09 13.07 ЮЗ 1 9000 м дымка 9/9 360 м
[Cu Sc]
+25.5 +22.3 82 +33 +34 очень
душно
1017.4 998.1
12 13.07 ЮЗ 2 14 км 8/8 360 м
[Cu Sc]
+29.1 +22.9 69 +39 +43 очень
душно
1015.6 1016.0
15 13.07 ЮЗ 2 16 км 6/5 360 м
[Cu Sc Ac trans]
+29.5 +22.7 67 +39 +44 очень
душно
1013.4 994.5
18 13.07 Ю 1 15 км 4/4 360 м
[Cu Sc Ci fib]
+27.3 +22.4 75 +36 +36 очень
душно
1013.5 994.4 +29.9
21 13.07 ЮЗ 1 13 км 8/8 360 м
[Sc]
+24.6 +22.2 87 +32 +32 очень
душно
1015.9 996.6
00 14.07 штиль 0 13 км 3/3 360 м
[Sc]
+23.0 +21.6 92 +31 +31 очень
душно
1016.0 996.6
03 14.07 штиль 0 13 км 8/8 360 м
[Sc]
+22.2 +21.1 93 +29 +29 очень
душно
1015.1 995.7
06 14.07 штиль 0 9000 м дымка 9/9 360 м
[Sc]
+22.9 +21.6 92 +31 +31 очень
душно
1015.5 996.1 +21.5
12 14.07 З 1 15 км 6/6 360 м
[Cu Sc]
+29.0 +22.0 66 +37 +48 очень
душно
1015.1 996.1
15 14.07 ЮЗ 1 18 км 6/6 500 м
[Cb cap]
+30.6 +22.3 61 +40 +45 очень
душно
1012.6 993.8
18 14.07 ЮЗ 1 16 км 9/9 360 м
[Cu Sc]
+28.5 +22.5 70 +37 +37 очень
душно
1011.8 992.8 +30.6
21 14.07 ЮЗ 1 13 км 4/4 360 м
[Sc]
+26.4 +22.4 79 +35 +35 очень
душно
1014.2 995.1
00 15.07 ЮЗ 1 13 км 3/3 360 м
[Sc]
+23.7 +22.0 90 +31 +31 очень
душно
1014.1 994.8
03 15.07 Ю 1 13 км 5/5 360 м
[Sc]
+22.8 +21.4 92 +30 +30 очень
душно
1013.4 994.0
06 15.07 штиль 0 9000 м дымка 6/5 360 м
[Sc Ac trans Ci fib]
+22.5 +21.4 94 +30 +30 очень
душно
1014.2 994.8 +21.9
09 15.07 З 1 12 км 9/6 360 м
[Sc Ac trans]
+24.5 +21.3 82 +31 +34 очень
душно
1014.8 995.5
12 15.07 СЗ 1 14 км 9/6 360 м
[Cu Sc Ac trans]
+27.5 +22.6 75 +36 +42 очень
душно
1013.7 994.6
15 15.07 ЮЗ 1 16 км 9/5 480 м
[Cu Sc Ac trans]
+30.0 +23.1 67 +40 +44 очень
душно
1010.5 991.7
18 15.07 ЮЗ 1 16 км 8/6 360 м
[Cu Sc Ac trans]
+27.5 +22.9 76 +37 +37 очень
душно
1011.3 992.3 +30.0
21 15.07 ЮЗ 1 13 км 8/8 360 м
[Sc]
+25.5 +22.7 85 +34 +34 очень
душно
1013.2 994.0
00 16.07 З 1 12 км 9/9 360 м
[Sc Ac trans]
+23.8 +21.7 88 +30 +30 очень
душно
1013.6 994.3
03 16.07 СЗ 1 12 км 9/9 360 м
[Sc Ac trans]
+23.1 +21.5 91 +31 +31 очень
душно
1012.4 993.1
06 16.07 ЮЗ 1 9000 м дымка 8/6 330 м
[Sc Ac trans]
+23.0 +21.4 91 +31 +31 очень
душно
1013.2 993.9 +22.1
09 16.07 ЮЗ 1 12 км 8/5 360 м
[Cu Sc Ac trans]
+27.0 +22.1 75 +35 +39 очень
душно
1015.1 996.0
12 16.07 ЮЗ 1 16 км 8/6 480 м
[Cu med, cong Ac trans]
+29.7 +22.8 67 +40 +47 очень
душно
1013.3 994.4
15 16.07 ЮЗ 1 16 км 8/8 360 м
[Cb cap]
+30.0 +22.5 64 +39 +42 очень
душно
1011.6 992.7
18 16.07 ЮЗ 1 16 км 8/3 360 м
[Cb cap Ac trans Ci sp]
+26.9 +22.7 78 +36 +36 очень
душно
1012.6 993.5 +30.8
21 16.07 ЮЗ 1 13 км 9/9 360 м
[Sc]
+25.5 +22.7 85 +34 +34 очень
душно
1014.9 995.7
00 17.07 ЮЗ 1 13 км 9/9 360 м
[Sc]
+24.8 +22.7 88 +33 +33 очень
душно
1016.0 996.7
03 17.07 ЮЗ 1 13 км 6/6 360 м
[Sc]
+24.2 +22.7 91 +32 +32 очень
душно
1014.9 995.6
06 17.07 ЮЗ 1 9000 м дымка 9/5 360 м
[Sc Ac trans]
+23.6 +22.1 91 +30 +30 очень
душно
1015.4 996.1 +23.0
09 17.07 ЮЗ 1 9000 м дымка 8/6 360 м
[Cu Sc Ac trans]
+25.7 +22.6 83 +34 +38 очень
душно
1017.5 998.3
12 17.07 ЮЗ 1 14 км 8/8 360 м
[Cu Sc Ac trans]
+29.5 +23.2 69 +40 +45 очень
душно
1015.9 996.9
15 17.07 ЮЗ 1 16 км 6/6 480 м
[Cu med, cong]
+31.6 +23.6 63 +43 +48 опасность
перегрева
1012.8 994.0
18 17.07 ЮЗ 1 15 км 8/8 360 м
[Cb cap]
+27.3 +23.3 79 +37 +37 очень
душно
1013.1 994.0 +31.8
21 17.07 ЮЗ 1 13 км 8/8 360 м
[Sc]
+25.0 +22.3 85 +33 +33 очень
душно
1015.0 995.8
06 18.07 ЮЗ 1 9000 м дымка 9/9 360 м
[Sc]
+24.0 +22.6 92 +31 +31 очень
душно
1015.0 995.7 +23.0
09 18.07 СЗ 1 12 км 8/8 360 м
[Cu Sc Ac trans]
+26.3 +22.4 79 +34 +37 очень
душно
1015.2 996.0
12 18.07 ЮЗ 1 14 км 8/8 360 м
[Cu Sc]
+29.3 +23.1 69 +39 +44 очень
душно
1014.2 995.2
15 18.07 ЮЗ 1 16 км 9/9 360 м
[Cu Sc]
+28.6 +22.8 71 +38 +39 очень
душно
1012.4 993.4
18 18.07 СЗ 1 14 км 9/9 360 м
[Cu Sc]
+27.0 +23.7 82 +37 +37 очень
душно
1012.1 993.0 +29.5

 

Местоположение метеостанции Кофоридуа (Гана): широта 6.08 долгота -0.25 высота над уровнем моря 167 м.

В архиве по умолчанию представлена погода в Кофоридуа за последнюю неделю. Архивные данные за месяц целиком и за предыдущие месяцы, начиная с января 2011 года, Вы можете получить, выбрав интересующий диапазон дат из раскрывающегося списка и нажав кнопку "Ввод!".


*Определитесь, кто Вы:
робот инопланетянин человек

Внимание! Время в таблицах - всемирное. Для получения местного времени необходимо прибавить поправку, которая равна 1 ч.

Смотрите также архив погоды в соседних городах и на ближайших метеорологических станциях:

Погода в Акюсе (Гана) (41 км)
Погода в Аккра (Гана) (54 км)
Погода в Тема (Гана) (58 км)
Погода в Аким Ода (Гана) (82 км)
Погода в Абетифи (Гана) (86 км)
Погода в Хо (Гана) (98 км)
Погода в Ада (Гана) (103 км)
Погода в Акатзи (Гана) (116 км)
Погода в Солтпонде (Гана) (133 км)
Погода в Кумаси (Гана) (165 км)

Пояснения к столбцам:

Ветер - указаны скорость ветра в м/с - средняя за 10 мин, порывы в срок и между сроками (в фигурных скобках) и направление, откуда дует ветер: С - северный, СВ - северо-восточный, В - восточный, ЮВ - юго-восточный, Ю - южный, ЮЗ - юго-западный, З - западный, СЗ - северо-западный.
Видимость - горизонтальная дальность видимости в метрах или километрах. При видимости от 1 до 10 км при отсутствии осадков обычно наблюдается дымка, при ухудшении видимости до 1 км и менее - туман. В сухую погоду видимость может ухудшаться дымом, пылью или мглою.
Явления - указаны атмосферные явления, наблюдавшиеся в срок или в последний час перед сроком; фигурными скобками обозначены явления, наблюдавшиеся между сроками (за 1-3 часа до срока); квадратными скобками обозначены град или гололедные отложения с указанием их диаметра в мм.
Облачность - указаны через наклонную черту общая и нижняя облачность в баллах и высота нижней границы облаков в метрах; квадратными скобками обозначены формы облаков: Ci - перистые, Cs - перисто-слоистые, Cc - перисто-кучевые, Ac - высококучевые, As - высокослоистые, Sc - слоисто-кучевые, Ns - слоисто-дождевые, Cu - кучевые, Cb - кучево-дождевые. Подробнее классификацию облаков см. в Атласе облаков (PDF).
T - Температура воздуха - температура, измеренная на высоте 2 м над землей.
Td - Температура точки росы - температура, при понижении до которой содержащийся в воздухе водяной пар достигнет насыщения.
f - Относительная влажность воздуха - влажноcть воздуха, измеренная на высоте 2 м над землей.
Te - Эффективная температура - температура, которую ощущает одетый по сезону человек в тени. Характеристика душности погоды. При расчете учитывается влияние влажности воздуха и скорости ветра на теплоощущения человека.
Tes - Эффективная температура на солнце - температура, которую ощущает человек, с поправкой на солнечный нагрев. Характеристика знойности погоды. Зависит от высоты солнца над горизонтом, облачности и скорости ветра. Ночью, в пасмурную погоду, а также при ветре 12 м/с и более поправка равна нулю.
P - Атмосферное давление - приведенное к уровню моря атмосферное давление.
Po - Атмосферное давление - измеренное на уровне метеостанции атмосферное давление.
Tmin - Минимальная температура - минимум температуры воздуха на высоте 2 м над землей.
Tmax - Максимальная температура - максимум температуры воздуха на высоте 2 м над землей.
R - Количество осадков - Количество выпавших осадков за период времени, мм. При наведении курсора мыши на число - период времени, за который выпало указанное количество осадков.
R24 - Количество осадков - Количество выпавших осадков за 24 часа, мм.
S - Снежный покров - Высота снежного покрова, см. При наведении курсора мыши на число - состояние снежного покрова и степень покрытия местности в баллах.